[[{"header":{"parameterUnit":"m.s-1","parameterCategory":1,"la1":30.2991,"la2":30.254,"lo1":-89.0895,"lo2":-89.0444,"dy":0.0017,"dx":0.0017,"nx":28,"ny":28,"refTime":"2025-06-16T03:00:00:Z","depth":0,"parameterNumber":2,"parameterNumberName":"U-component_of_WINDS"},"data":[0,0,0,0,0,0,0,0,0,0,0,0,0,0,0,0,0,0,0,0,0,0,0,0,0,0,0,0,0,0,0,0,0,0,0,0,0,0,0,0,0,0,0,0,0,0,0,0,0,0,0,0,0,0,0,0,0,0,0.4366,0.4367,0,0.447,0.4471,0.4472,0.4547,0.4548,0.4549,0.4549,0.4655,0.4658,0.466,0,0,0,0,0,0,0,0,0,0,0,0,0,0.423,0.4232,0.4365,0.4367,0.4368,0.447,0.4471,0.4473,0.4547,0.4548,0.4549,0.4549,0.4655,0.4657,0.466,0,0,0,0,0,0,0,0,0,0,0,0,0,0.4307,0.4233,0.4365,0.4418,0.4423,0.4469,0.4471,0.4473,0.4547,0.4548,0.4549,0.455,0.4654,0.4657,0.466,0.4663,0,0,0.4671,0.4672,0,0,0,0,0,0,0,0,0.4302,0.4312,0.4409,0.4414,0.4421,0.4497,0.4463,0.4537,0.4547,0.45,0.4549,0.455,0.4602,0.4609,0.4627,0.4668,0.4672,0.4671,0.4673,0.4675,0.4675,0,0,0,0,0,0,0,0.4297,0.4308,0.4407,0.441,0.4417,0.4436,0.4448,0.4477,0.4544,0.4504,0.451,0.4521,0.4605,0.4624,0.463,0.4674,0.4671,0.4674,0.4676,0.4677,0.4723,0.4722,0,0,0,0,0,0,0.4284,0.4303,0.4403,0.441,0.4363,0.4437,0.4451,0.4471,0.4544,0.4556,0.452,0.4524,0.4617,0.4626,0.4634,0.4642,0.4674,0.4678,0.468,0.4724,0.4723,0.4722,0,0,0,0,0,0,0.428,0.4292,0.4399,0.4358,0.4373,0.4439,0.4461,0.4473,0.4491,0.4557,0.4569,0.4527,0.4618,0.4629,0.4655,0.4647,0.4679,0.4682,0.4725,0.4723,0.4722,0.4657,0,0,0,0,0,0,0.4276,0.429,0.4292,0.4357,0.4375,0.4418,0.4461,0.4474,0.4497,0.4503,0.4566,0.4577,0.462,0.465,0.4659,0.4652,0.4685,0.4726,0.4724,0.4723,0.466,0.4654,0.4648,0,0,0,0,0,0.4271,0.4269,0.4291,0.4303,0.4378,0.4418,0.4428,0.4477,0.4496,0.4498,0.454,0.4575,0.4646,0.4652,0.4662,0.4656,0.4726,0.4724,0.4723,0.4663,0.4655,0.4648,0,0,0,0,0,0,0.4199,0.4278,0.4304,0.4323,0.4363,0.443,0.4434,0.4467,0.4502,0.4507,0.4567,0.458,0.46,0.4631,0.4636,0.4663,0.4691,0.4691,0.4642,0.4635,0.4629,0.4621,0.4688,0,0,0,0,0,0.4186,0.4212,0.4279,0.429,0.4309,0.4368,0.4387,0.4422,0.4465,0.4483,0.4527,0.4568,0.46,0.4619,0.4652,0.4666,0.4681,0.4667,0.4661,0.4656,0.4655,0.4665,0.466,0.4716,0.4716,0.4716,0,0,0.4158,0.4205,0.4217,0.4276,0.4312,0.4337,0.4381,0.4406,0.4425,0.4486,0.4513,0.4547,0.4597,0.4617,0.4628,0.4644,0.4643,0.4653,0.4649,0.4651,0.4662,0.4657,0.4652,0.4714,0.4715,0.4715,0,0,0.412,0.4158,0.4171,0.4206,0.4259,0.4298,0.4301,0.4364,0.4389,0.4417,0.4464,0.4488,0.4541,0.4575,0.4599,0.4576,0.4609,0.4585,0.4553,0.4562,0.4557,0.4554,0.4545,0.4541,0.4584,0.4584,0.4584,0,0.4079,0.4119,0.4173,0.4195,0.422,0.4278,0.4291,0.4322,0.4383,0.4398,0.4415,0.4484,0.4522,0.4551,0.4545,0.4563,0.4568,0.4577,0.4554,0.4551,0.4548,0.4541,0.4537,0.458,0.4581,0.4581,0.4581,0,0.4065,0.4092,0.4096,0.4154,0.418,0.4197,0.4254,0.4274,0.4307,0.4345,0.4373,0.4421,0.4465,0.4474,0.4507,0.4508,0.4516,0.4542,0.4571,0.4538,0.4532,0.453,0.4576,0.4577,0.4578,0.4579,0,0,0.3983,0.4072,0.4073,0.41,0.4163,0.4185,0.4206,0.4249,0.4265,0.4305,0.4324,0.4368,0.4394,0.4421,0.4458,0.4466,0.4444,0.4492,0.4494,0.4481,0.4449,0.4428,0.4424,0.4468,0.4467,0.4467,0.4445,0,0.3954,0.3995,0.4045,0.4068,0.4094,0.415,0.4168,0.4209,0.4245,0.4272,0.4313,0.4343,0.4374,0.4391,0.4402,0.4445,0.4439,0.4447,0.4485,0.4486,0.447,0.4421,0.4398,0.4375,0.4443,0.4442,0.4442,0,0.3926,0.3964,0.399,0.4052,0.4065,0.408,0.4124,0.415,0.4198,0.4224,0.4255,0.4295,0.432,0.4346,0.4381,0.4386,0.4405,0.4429,0.4429,0.4434,0.4461,0.4423,0.4368,0.4364,0.4439,0.4439,0.444,0,0.3863,0.3921,0.3944,0.3966,0.4039,0.4049,0.4079,0.4128,0.4151,0.419,0.4206,0.4247,0.4269,0.43,0.435,0.4365,0.438,0.4411,0.4402,0.4401,0.4402,0.4401,0.4349,0.4416,0.4416,0.4416,0.4416,0,0.3825,0.3839,0.3917,0.3931,0.3948,0.4006,0.4021,0.4057,0.41,0.4122,0.4174,0.4193,0.4259,0.4286,0.4326,0.4349,0.4359,0.4381,0.4391,0.4376,0.4373,0.4388,0.4391,0.4415,0.4415,0.4415,0.4415,0,0.3757,0.381,0.3839,0.3907,0.3924,0.3934,0.3991,0.4007,0.4047,0.4075,0.4084,0.4147,0.4182,0.4236,0.4287,0.4314,0.433,0.4348,0.4314,0.432,0.4308,0.4308,0.4263,0.426,0.4329,0.4328,0.4327,0,0.3729,0.3741,0.381,0.3829,0.3858,0.3887,0.3912,0.397,0.3993,0.4049,0.4058,0.4097,0.4132,0.4185,0.4235,0.4275,0.4293,0.4275,0.4299,0.4284,0.4292,0.429,0.4292,0.4268,0.4267,0.4266,0.4266,0,0.3673,0.3699,0.3732,0.3775,0.3802,0.3839,0.3877,0.389,0.3956,0.398,0.4016,0.4043,0.4096,0.4134,0.4181,0.4213,0.425,0.4258,0.4258,0.4242,0.4221,0.4232,0.4297,0.4258,0.4259,0.426,0.426,0.426,0.3624,0.3637,0.3688,0.3724,0.3759,0.3794,0.3813,0.3855,0.3887,0.3935,0.3967,0.4002,0.4051,0.4118,0.4148,0.4176,0.4192,0.4193,0.4192,0.4191,0.4185,0.4218,0.4185,0.4186,0.4186,0.4186,0.4186,0,0.357,0.3606,0.3638,0.3691,0.3719,0.3753,0.3798,0.3819,0.3849,0.3891,0.3924,0.3967,0.4005,0.4058,0.41,0.4113,0.4131,0.4122,0.4121,0.4128,0.4169,0.4164,0.4106,0.4106,0.4106,0.4106,0.4106,0.4106,0.3545,0.357,0.3602,0.3644,0.3681,0.3715,0.3738,0.3771,0.3805,0.3851,0.3882,0.3918,0.3965,0.4011,0.4047,0.4062,0.4075,0.406,0.408,0.4117,0.4125,0.4132,0.4128,0.4063,0.4062,0.4036,0.4036,0.4036]},{"header":{"parameterUnit":"m.s-1","parameterCategory":1,"la1":30.2991,"la2":30.254,"lo1":-89.0895,"lo2":-89.0444,"dy":0.0017,"dx":0.0017,"nx":28,"ny":28,"refTime":"2025-06-16T03:00:00:Z","depth":0,"parameterNumber":3,"parameterNumberName":"V-component_of_WINDS"},"data":[0,0,0,0,0,0,0,0,0,0,0,0,0,0,0,0,0,0,0,0,0,0,0,0,0,0,0,0,0,0,0,0,0,0,0,0,0,0,0,0,0,0,0,0,0,0,0,0,0,0,0,0,0,0,0,0,0,0,6.2089,6.2091,0,6.2287,6.2289,6.2291,6.232,6.2318,6.2316,6.2314,6.2506,6.2513,6.2519,0,0,0,0,0,0,0,0,0,0,0,0,0,6.1724,6.173,6.2089,6.2091,6.2094,6.2287,6.2289,6.2292,6.232,6.2318,6.2316,6.2314,6.2504,6.2512,6.252,0,0,0,0,0,0,0,0,0,0,0,0,0,6.1898,6.1732,6.2088,6.2131,6.2137,6.2286,6.2289,6.2293,6.232,6.2318,6.2315,6.2313,6.2501,6.2511,6.2521,6.2637,0,0,6.2552,6.2556,0,0,0,0,0,0,0,0,6.1888,6.1911,6.2123,6.2129,6.2136,6.2276,6.2231,6.2408,6.2321,6.2251,6.2314,6.2311,6.2431,6.2447,6.2489,6.2646,6.2654,6.2553,6.2559,6.2563,6.2566,0,0,0,0,0,0,0,6.1876,6.1902,6.2167,6.2126,6.2134,6.2137,6.2159,6.2264,6.2353,6.2257,6.2259,6.2283,6.2434,6.2479,6.2494,6.2657,6.2553,6.2562,6.2568,6.2572,6.2918,6.2921,0,0,0,0,0,0,6.1857,6.1892,6.2161,6.2173,6.2003,6.2146,6.217,6.2233,6.2352,6.2368,6.2285,6.2283,6.2463,6.2482,6.2501,6.2646,6.2563,6.2573,6.2579,6.2915,6.2919,6.2922,0,0,0,0,0,0,6.1849,6.1881,6.2153,6.2034,6.2068,6.2155,6.2226,6.2239,6.2285,6.2374,6.2388,6.2316,6.2462,6.2487,6.2604,6.2653,6.2577,6.2587,6.2912,6.2916,6.2921,6.2936,0,0,0,0,0,0,6.1839,6.1878,6.1926,6.2035,6.2075,6.2256,6.2229,6.2245,6.2304,6.2303,6.2407,6.2421,6.2462,6.2589,6.2614,6.2665,6.2594,6.2908,6.2914,6.2919,6.2931,6.294,6.2948,0,0,0,0,0,6.1826,6.192,6.1929,6.1961,6.2137,6.2259,6.2281,6.233,6.2307,6.2355,6.2411,6.2418,6.2643,6.26,6.2629,6.2684,6.2905,6.2912,6.2919,6.2928,6.2939,6.2948,0,0,0,0,0,0,6.1812,6.1935,6.1946,6.2079,6.2159,6.2264,6.2325,6.234,6.2425,6.2421,6.2473,6.2496,6.2611,6.2658,6.2609,6.2802,6.2771,6.2784,6.2768,6.2779,6.2787,6.2774,6.2603,0,0,0,0,0,6.1825,6.1917,6.2018,6.2125,6.2165,6.2238,6.2293,6.2323,6.2406,6.2439,6.2504,6.2582,6.267,6.2726,6.2812,6.2937,6.2959,6.2989,6.2997,6.3004,6.3015,6.3084,6.3099,6.2945,6.2945,6.2945,0,0,6.1851,6.193,6.1985,6.2125,6.219,6.2281,6.2266,6.2363,6.2431,6.2452,6.2569,6.2619,6.2708,6.283,6.2887,6.2874,6.3062,6.3013,6.3017,6.3025,6.3093,6.3107,6.312,6.295,6.2949,6.2949,0,0,6.1948,6.2017,6.2115,6.2181,6.2281,6.2329,6.2352,6.2455,6.249,6.2608,6.2627,6.2704,6.2855,6.2919,6.297,6.3088,6.3097,6.3114,6.3159,6.3226,6.3238,6.3249,6.3292,6.3306,6.3124,6.3124,6.3124,0,6.1968,6.2111,6.2162,6.226,6.232,6.2346,6.2444,6.2504,6.2625,6.2664,6.2648,6.2838,6.29,6.3037,6.3066,6.3106,6.3133,6.3104,6.3232,6.3244,6.3255,6.3296,6.3312,6.3126,6.3126,6.3126,6.3125,0,6.213,6.2228,6.2294,6.2415,6.2482,6.2578,6.2641,6.2702,6.2725,6.2773,6.2891,6.2966,6.3068,6.3102,6.3124,6.3242,6.3231,6.3222,6.3193,6.327,6.331,6.3326,6.3128,6.3128,6.3127,6.3127,0,0,6.2226,6.2374,6.2398,6.2453,6.2565,6.2639,6.2735,6.2838,6.2889,6.297,6.3051,6.3177,6.3171,6.3229,6.3258,6.3316,6.3406,6.3301,6.3304,6.332,6.354,6.3547,6.3565,6.3411,6.3415,6.3417,6.3533,0,6.2337,6.2515,6.2563,6.2712,6.2802,6.2827,6.291,6.2985,6.3031,6.3111,6.316,6.325,6.3234,6.327,6.3329,6.3383,6.3451,6.3375,6.3485,6.3489,6.3465,6.3586,6.3594,6.37,6.3549,6.3552,6.3554,0,6.2492,6.2581,6.274,6.2839,6.2879,6.2953,6.3051,6.3128,6.3212,6.3241,6.3306,6.333,6.3427,6.339,6.3524,6.347,6.3518,6.355,6.3556,6.357,6.3528,6.3604,6.3735,6.3752,6.3578,6.3576,6.3575,0,6.2548,6.2706,6.2822,6.2868,6.2987,6.3039,6.3089,6.3171,6.323,6.3313,6.3351,6.3443,6.3493,6.3562,6.3608,6.3577,6.3738,6.3705,6.3764,6.3763,6.3799,6.3797,6.3941,6.3826,6.3826,6.3825,6.3825,0,6.2669,6.2765,6.285,6.2921,6.3029,6.308,6.3184,6.3235,6.3307,6.3386,6.341,6.3483,6.3539,6.3618,6.3654,6.3759,6.3781,6.3806,6.3815,6.3805,6.3802,6.3839,6.3833,6.383,6.3829,6.3828,6.3827,0,6.2752,6.2812,6.294,6.3042,6.307,6.3145,6.323,6.3298,6.3344,6.3444,6.347,6.3541,6.3636,6.3688,6.3806,6.3829,6.3948,6.3951,6.3921,6.3925,6.3982,6.3977,6.4156,6.4183,6.4048,6.4049,6.405,0,6.2826,6.2902,6.3012,6.3069,6.3122,6.3212,6.3273,6.3324,6.3385,6.3486,6.3541,6.3638,6.3719,6.3867,6.3928,6.4017,6.4024,6.4081,6.4038,6.4026,6.4027,6.4023,6.4031,6.4089,6.409,6.4091,6.4092,0,6.2953,6.2979,6.3067,6.3166,6.3238,6.3317,6.3395,6.3438,6.3502,6.3569,6.3668,6.373,6.3851,6.3946,6.4041,6.4089,6.4101,6.4105,6.4124,6.4116,6.4096,6.4109,6.3944,6.4101,6.41,6.41,6.4099,6.4099,6.3035,6.3103,6.3192,6.3289,6.3354,6.3426,6.3495,6.3551,6.3635,6.3741,6.3764,6.3868,6.3947,6.4076,6.4126,6.4206,6.4195,6.4222,6.4229,6.4235,6.4238,6.4082,6.4223,6.4222,6.4222,6.4222,6.4222,0,6.3164,6.3222,6.3311,6.3421,6.3497,6.3503,6.3589,6.3651,6.3744,6.3818,6.3897,6.401,6.4101,6.4168,6.4261,6.4312,6.432,6.4335,6.4333,6.4343,6.4242,6.4218,6.4327,6.4327,6.4327,6.4327,6.4327,6.4327,6.3241,6.3357,6.3393,6.3539,6.3595,6.3701,6.3749,6.3815,6.3875,6.4001,6.4078,6.4122,6.4193,6.4291,6.4374,6.4391,6.4425,6.444,6.4457,6.4362,6.435,6.434,6.4317,6.4446,6.4446,6.4552,6.4553,6.4554]}]]